ERINB Weather Reports


time (UTC)temp
C
wind
direction
speed
KPH
gust
KPH
rain 1hr
cm
rain 24hr
cm
rain mn
cm
humidity
%
barometer
mb
20260507015148 12 62 0.0 4.8 0.00 0.00 0.00 1020.2
20260507014858 12 0 0.0 0.0 0.00 0.00 0.00 1020.2
20260507014448 12 0 0.0 0.0 0.00 0.00 0.00 1020.2
20260507013858 12 75 0.0 8.0 0.00 0.00 0.00 1020.3
20260507013748 12 75 0.0 8.0 0.00 0.00 0.00 1020.3
20260507013048 12 0 0.0 0.0 0.00 0.00 0.00 1020.3
20260507012858 12 0 0.0 0.0 0.00 0.00 0.00 1020.3
20260507012348 12 0 0.0 0.0 0.00 0.00 0.00 1020.3
20260507011858 12 63 0.0 4.8 0.00 0.00 0.00 1020.3
20260507011648 12 63 0.0 4.8 0.00 0.00 0.00 1020.3
20260507010948 12 35 0.0 3.2 0.00 0.00 0.00 1020.3
20260507010858 12 65 0.0 6.4 0.00 0.00 0.00 1020.3
20260507010324 13 59 0.0 3.2 0.00 0.00 0.00 1020.4
20260507010248 13 59 0.0 3.2 0.00 0.00 0.00 1020.4
20260507005858 13 13 0.0 3.2 0.00 0.00 0.00 1020.4
20260507005548 13 13 0.0 3.2 0.00 0.00 0.00 1020.4
20260507004847 13 60 0.0 6.4 0.00 0.00 0.00 1020.4
20260507004155 13 39 0.0 3.2 0.00 0.00 0.00 1020.4
20260507003900 13 66 1.6 4.8 0.00 0.00 0.00 1020.3
20260507003447 13 66 1.6 4.8 0.00 0.00 0.00 1020.3
20260507002900 13 60 1.6 8.0 0.00 0.00 0.00 1020.4
20260507002748 13 60 1.6 8.0 0.00 0.00 0.00 1020.4
20260507002047 13 51 1.6 8.0 0.00 0.00 0.00 1020.4
20260507001858 13 0 0.0 0.0 0.00 0.00 0.00 1020.2
20260507001347 12 59 1.6 6.4 0.00 0.00 0.00 1020.2
20260507000849 12 65 0.0 6.4 0.00 0.00 0.00 1020.2
20260507000147 12 103 0.0 3.2 0.00 0.00 0.00 1020.3
20260506235857 12 0 0.0 0.0 0.00 0.00 0.00 1020.3
20260506235448 12 0 0.0 0.0 0.00 0.00 0.00 1020.3
20260506234858 13 240 0.0 1.6 0.00 0.00 0.00 1020.2
20260506234747 13 240 0.0 1.6 0.00 0.00 0.00 1020.2
20260506234048 13 0 0.0 0.0 0.00 0.00 0.00 1020.2
20260506233859 13 0 0.0 0.0 0.00 0.00 0.00 1020.3
20260506233347 13 0 0.0 0.0 0.00 0.00 0.00 1020.4
20260506232900 13 0 0.0 0.0 0.00 0.00 0.00 1020.6
20260506232650 13 0 0.0 0.0 0.00 0.00 0.00 1020.6
20260506231947 13 0 0.0 0.0 0.00 0.00 0.00 1020.5
20260506231857 13 0 0.0 0.0 0.00 0.00 0.00 1020.5
20260506231247 13 0 0.0 0.0 0.00 0.00 0.00 1020.4
20260506230858 13 0 0.0 0.0 0.00 0.00 0.00 1020.5
20260506230547 13 0 0.0 0.0 0.00 0.00 0.00 1020.5
20260506225847 13 0 0.0 0.0 0.00 0.00 0.00 1020.4
20260506225149 13 239 0.0 3.2 0.00 0.00 0.00 1020.4
20260506224900 13 0 0.0 0.0 0.00 0.00 0.00 1020.4
20260506224448 13 0 0.0 0.0 0.00 0.00 0.00 1020.4
20260506223858 13 0 0.0 0.0 0.00 0.00 0.00 1020.4
20260506223748 13 0 0.0 0.0 0.00 0.00 0.00 1020.4
20260506223047 13 0 0.0 0.0 0.00 0.00 0.00 1020.5
20260506222859 13 0 0.0 0.0 0.00 0.00 0.00 1020.5
20260506222348 13 0 0.0 0.0 0.00 0.00 0.00 1020.5
20260506221858 13 233 0.0 1.6 0.00 0.00 0.00 1020.5
20260506221647 13 233 0.0 1.6 0.00 0.00 0.00 1020.5
20260506220948 13 0 0.0 0.0 0.00 0.00 0.00 1020.3
20260506220858 13 0 0.0 0.0 0.00 0.00 0.00 1020.3
20260506220247 13 0 0.0 0.0 0.00 0.00 0.00 1020.5
20260506215858 14 0 0.0 0.0 0.00 0.00 0.00 1020.3
20260506215548 14 0 0.0 0.0 0.00 0.00 0.00 1020.3
20260506214847 13 0 0.0 0.0 0.00 0.00 0.00 1020.6
20260506214147 13 194 0.0 3.2 0.00 0.00 0.00 1020.4
20260506213859 13 242 0.0 4.8 0.00 0.00 0.00 1020.5
20260506213448 13 242 0.0 4.8 0.00 0.00 0.00 1020.5
20260506212858 14 257 0.0 8.0 0.00 0.00 0.00 1020.3
20260506212747 14 257 0.0 8.0 0.00 0.00 0.00 1020.3
20260506212049 13 240 0.0 1.6 0.00 0.00 0.00 1020.4
20260506211857 13 239 0.0 3.2 0.00 0.00 0.00 1020.3
20260506211347 13 236 0.0 1.6 0.00 0.00 0.00 1020.4
20260506210857 13 0 0.0 0.0 0.00 0.00 0.00 1020.4
20260506210647 13 0 0.0 0.0 0.00 0.00 0.00 1020.4
20260506205947 12 0 0.0 0.0 0.00 0.00 0.00 1020.2
20260506205858 13 0 0.0 0.0 0.00 0.00 0.00 1020.3
20260506205247 13 0 0.0 0.0 0.00 0.00 0.00 1020.2
20260506204858 12 0 0.0 0.0 0.00 0.00 0.00 1020.3
20260506204547 12 0 0.0 0.0 0.00 0.00 0.00 1020.3
20260506203847 12 0 0.0 0.0 0.00 0.00 0.00 1020.2
20260506203148 12 225 1.6 6.4 0.00 0.00 0.00 1020.0
20260506202857 12 300 0.0 1.6 0.00 0.00 0.00 1019.8
20260506202447 12 300 0.0 1.6 0.00 0.00 0.00 1019.8
20260506201857 12 211 1.6 11.3 0.00 0.00 0.00 1019.8
20260506201750 12 211 1.6 11.3 0.00 0.00 0.00 1019.8
20260506201047 12 267 1.6 4.8 0.00 0.00 0.00 1019.9
20260506200857 12 266 0.0 3.2 0.00 0.00 0.00 1019.8
20260506200347 12 210 0.0 3.2 0.00 0.00 0.00 1019.5
20260506195858 12 276 1.6 4.8 0.00 0.00 0.00 1019.5
20260506195647 12 276 1.6 4.8 0.00 0.00 0.00 1019.5
20260506194947 12 188 0.0 4.8 0.00 0.00 0.00 1019.4
20260506194857 11 301 1.6 6.4 0.00 0.00 0.00 1019.3
20260506194247 11 194 0.0 8.0 0.00 0.00 0.00 1019.4
20260506193857 11 217 0.0 4.8 0.00 0.00 0.00 1019.3
20260506193547 11 217 0.0 4.8 0.00 0.00 0.00 1019.3
20260506192847 11 277 1.6 6.4 0.00 0.00 0.00 1019.4
20260506192259 10 305 0.0 8.0 0.00 0.00 0.00 1018.8
20260506192148 11 180 0.0 4.8 0.00 0.00 0.00 1019.4
20260506191859 11 198 1.6 9.7 0.00 0.00 0.00 1019.3
20260506191447 11 198 1.6 9.7 0.00 0.00 0.00 1019.3
20260506190857 11 277 3.2 11.3 0.00 0.00 0.00 1019.2
20260506190747 11 277 3.2 11.3 0.00 0.00 0.00 1019.2
20260506190050 11 284 0.0 1.6 0.00 0.00 0.00 1018.9
20260506185858 10 343 0.0 3.2 0.00 0.00 0.00 1019.1
20260506185347 10 169 0.0 6.4 0.00 0.00 0.00 1019.2
20260506184858 10 269 1.6 12.9 0.00 0.00 0.00 1019.0
20260506184647 10 269 1.6 12.9 0.00 0.00 0.00 1019.0
20260506183948 10 172 0.0 4.8 0.00 0.00 0.00 1018.9
20260506183858 10 0 0.0 0.0 0.00 0.00 0.00 1019.0
20260506183247 10 0 0.0 0.0 0.00 0.00 0.00 1018.9
20260506182857 10 314 1.6 6.4 0.00 0.00 0.00 1019.0
20260506182547 10 314 1.6 6.4 0.00 0.00 0.00 1019.0
20260506182045 10 226 0.0 4.8 0.00 0.00 0.00 1018.8
20260506181848 10 226 0.0 4.8 0.00 0.00 0.00 1018.8
20260506181147 10 277 1.6 8.0 0.00 0.00 0.00 1018.6
20260506180857 10 224 0.0 3.2 0.00 0.00 0.00 1018.7
20260506180447 10 224 0.0 3.2 0.00 0.00 0.00 1018.7
20260506175857 10 305 0.0 8.0 0.00 0.00 0.00 1018.8
20260506175748 10 305 0.0 8.0 0.00 0.00 0.00 1018.8
20260506175047 10 186 1.6 6.4 0.00 0.00 0.00 1018.6
20260506174900 10 208 0.0 6.4 0.00 0.00 0.00 1018.6
20260506174347 10 277 0.0 9.7 0.00 0.00 0.00 1018.6
20260506173857 10 0 0.0 0.0 0.00 0.00 0.00 1018.5
20260506173647 10 0 0.0 0.0 0.00 0.00 0.00 1018.5
20260506172948 10 287 1.6 6.4 0.00 0.00 0.00 1018.4
20260506172858 10 0 0.0 0.0 0.00 0.00 0.00 1018.3
20260506172247 10 229 1.6 6.4 0.00 0.00 0.00 1018.4
20260506171858 10 285 1.6 9.7 0.00 0.00 0.00 1018.3
20260506171547 10 285 1.6 9.7 0.00 0.00 0.00 1018.3
20260506170847 10 301 1.6 8.0 0.00 0.00 0.00 1018.6
20260506170147 10 243 0.0 4.8 0.00 0.00 0.00 1018.4
20260506165857 10 295 1.6 9.7 0.00 0.00 0.00 1018.6
20260506165447 10 295 1.6 9.7 0.00 0.00 0.00 1018.6
20260506164857 10 267 1.6 9.7 0.00 0.00 0.00 1018.5
20260506164749 10 267 1.6 9.7 0.00 0.00 0.00 1018.5
20260506164047 10 255 4.8 14.5 0.00 0.00 0.00 1018.5
20260506163857 10 270 1.6 8.0 0.00 0.00 0.00 1018.5
20260506163347 10 229 1.6 11.3 0.00 0.00 0.00 1018.5
20260506162857 10 231 1.6 4.8 0.00 0.00 0.00 1018.5
20260506162647 10 231 1.6 4.8 0.00 0.00 0.00 1018.5
20260506161947 10 278 1.6 9.7 0.00 0.00 0.00 1018.3
20260506161858 10 191 0.0 6.4 0.00 0.00 0.00 1018.4
20260506161247 10 269 1.6 8.0 0.00 0.00 0.00 1018.3
20260506160857 10 264 1.6 8.0 0.00 0.00 0.00 1018.2
20260506160547 10 264 1.6 8.0 0.00 0.00 0.00 1018.2
20260506155849 10 264 4.8 11.3 0.00 0.00 0.00 1018.1
20260506155147 10 267 3.2 8.0 0.00 0.00 0.00 1017.8
20260506154857 10 205 3.2 11.3 0.00 0.00 0.00 1017.9
20260506154447 10 205 3.2 11.3 0.00 0.00 0.00 1017.9
20260506153857 10 253 1.6 12.9 0.00 0.00 0.00 1017.9
20260506153747 10 253 1.6 12.9 0.00 0.00 0.00 1017.9
20260506153047 10 257 3.2 9.7 0.00 0.00 0.00 1018.0
20260506152857 10 267 1.6 12.9 0.00 0.00 0.00 1017.9
20260506152347 10 302 1.6 9.7 0.00 0.00 0.00 1018.1
20260506151857 10 266 1.6 11.3 0.00 0.00 0.00 1018.0
20260506151646 10 266 1.6 11.3 0.00 0.00 0.00 1018.0
20260506150946 10 276 0.0 4.8 0.00 0.00 0.00 1018.2
20260506150857 10 273 1.6 8.0 0.00 0.00 0.00 1018.0
20260506150247 10 283 1.6 8.0 0.00 0.00 0.00 1018.3
20260506145857 10 274 0.0 1.6 0.00 0.00 0.00 1018.1
20260506145547 10 274 0.0 1.6 0.00 0.00 0.00 1018.1
20260506144846 10 269 3.2 11.3 0.00 0.00 0.00 1018.0
20260506144146 10 277 3.2 12.9 0.00 0.00 0.00 1018.2
20260506143857 10 302 1.6 8.0 0.00 0.00 0.00 1017.9
20260506143447 10 302 1.6 8.0 0.00 0.00 0.00 1017.9
20260506142857 10 214 1.6 6.4 0.00 0.00 0.00 1017.7
20260506142748 10 214 1.6 6.4 0.00 0.00 0.00 1017.7
20260506142046 10 248 0.0 6.4 0.00 0.00 0.00 1017.6
20260506141858 10 260 0.0 8.0 0.00 0.00 0.00 1017.8
20260506141551 10 278 0.0 8.0 0.00 0.00 0.00 1018.1
20260506141346 10 278 0.0 8.0 0.00 0.00 0.00 1018.1
20260506140857 10 198 0.0 4.8 0.00 0.00 0.00 1017.8
20260506140647 10 198 0.0 4.8 0.00 0.00 0.00 1017.8
20260506135948 10 270 1.6 8.0 0.00 0.00 0.00 1018.0
20260506135857 10 198 1.6 6.4 0.00 0.00 0.00 1017.8
20260506135247 10 0 0.0 0.0 0.00 0.00 0.00 1017.8
20260506134857 10 0 0.0 0.0 0.00 0.00 0.00 1017.6
20260506134546 10 0 0.0 0.0 0.00 0.00 0.00 1017.6
20260506133846 10 309 1.6 6.4 0.00 0.00 0.00 1017.8
20260506133146 10 295 0.0 6.4 0.00 0.00 0.00 1017.8
20260506132857 10 262 0.0 8.0 0.00 0.00 0.00 1017.8
20260506132446 10 262 0.0 8.0 0.00 0.00 0.00 1017.8
20260506131857 10 208 0.0 3.2 0.00 0.00 0.00 1017.8
20260506131747 10 208 0.0 3.2 0.00 0.00 0.00 1017.8
20260506131047 10 269 0.0 4.8 0.00 0.00 0.00 1017.7
20260506130857 10 257 0.0 6.4 0.00 0.00 0.00 1017.7
20260506130346 10 0 0.0 0.0 0.00 0.00 0.00 1017.6
20260506125857 10 271 0.0 9.7 0.00 0.00 0.00 1017.6
20260506125652 10 271 0.0 9.7 0.00 0.00 0.00 1017.6
20260506124947 10 197 0.0 4.8 0.00 0.00 0.00 1017.5
20260506124856 10 277 3.2 8.0 0.00 0.00 0.00 1017.5
20260506124246 10 260 1.6 8.0 0.00 0.00 0.00 1017.6
20260506123857 10 271 1.6 8.0 0.00 0.00 0.00 1017.3
20260506123546 10 271 1.6 8.0 0.00 0.00 0.00 1017.3
20260506122923 10 291 1.6 9.7 0.00 0.00 0.00 1017.2
20260506122847 10 291 1.6 9.7 0.00 0.00 0.00 1017.2
20260506122146 10 281 1.6 12.9 0.00 0.00 0.00 1017.1
20260506121856 10 270 0.0 3.2 0.00 0.00 0.00 1017.2
20260506121519 10 270 0.0 3.2 0.00 0.00 0.00 1017.2
20260506121446 10 270 0.0 3.2 0.00 0.00 0.00 1017.2
20260506120857 10 250 1.6 14.5 0.00 0.00 0.00 1017.4
20260506120748 10 250 1.6 14.5 0.00 0.00 0.00 1017.4
20260506120046 10 301 0.0 4.8 0.00 0.00 0.00 1017.2
20260506115857 10 274 0.0 4.8 0.00 0.00 0.00 1017.3
20260506115347 10 278 1.6 9.7 0.00 0.00 0.00 1017.4
20260506114856 10 271 0.0 3.2 0.00 0.00 0.00 1017.2
20260506114646 10 271 0.0 3.2 0.00 0.00 0.00 1017.2
20260506113946 10 281 1.6 8.0 0.00 0.00 0.00 1017.2
20260506113856 10 276 3.2 11.3 0.00 0.00 0.00 1017.3
20260506113246 10 285 1.6 9.7 0.00 0.00 0.00 1017.2
20260506112857 10 278 1.6 8.0 0.00 0.00 0.00 1017.3
20260506112619 10 278 1.6 8.0 0.00 0.00 0.00 1017.3
20260506112546 10 278 1.6 8.0 0.00 0.00 0.00 1017.3
20260506111846 10 270 1.6 8.0 0.00 0.00 0.00 1017.1
20260506111545 10 288 0.0 1.6 0.00 0.00 0.00 1017.1
20260506111146 10 288 0.0 1.6 0.00 0.00 0.00 1017.1
20260506110857 10 298 0.0 1.6 0.00 0.00 0.00 1017.1
20260506110451 10 298 0.0 1.6 0.00 0.00 0.00 1017.1
20260506105856 10 274 0.0 6.4 0.00 0.00 0.00 1017.1
20260506105749 10 274 0.0 6.4 0.00 0.00 0.00 1017.1
20260506105046 10 295 3.2 9.7 0.00 0.00 0.00 1017.2
20260506104856 10 255 1.6 8.0 0.00 0.00 0.00 1017.2
20260506103856 10 302 1.6 6.4 0.00 0.00 0.00 1017.0
20260506103646 10 302 1.6 6.4 0.00 0.00 0.00 1017.0
20260506102946 10 259 0.0 6.4 0.00 0.00 0.00 1017.2
20260506102857 10 0 0.0 0.0 0.00 0.00 0.00 1016.9
20260506102246 10 284 1.6 11.3 0.00 0.00 0.00 1017.2
20260506101546 10 293 0.0 4.8 0.00 0.00 0.00 1017.2
20260506100846 10 305 1.6 6.4 0.00 0.00 0.00 1017.1
20260506100149 10 242 0.0 4.8 0.00 0.00 0.00 1017.1
20260506095856 10 305 1.6 9.7 0.00 0.00 0.00 1017.1
20260506095446 10 305 1.6 9.7 0.00 0.00 0.00 1017.1
20260506094858 10 259 0.0 6.4 0.00 0.00 0.00 1017.0
20260506094046 10 0 0.0 0.0 0.00 0.00 0.00 1016.9
20260506093856 10 195 0.0 1.6 0.00 0.00 0.00 1016.9
20260506093346 10 276 0.0 4.8 0.00 0.00 0.00 1016.9
20260506092856 10 295 1.6 8.0 0.00 0.00 0.00 1016.9
20260506092646 10 295 1.6 8.0 0.00 0.00 0.00 1016.9
20260506091946 10 0 0.0 0.0 0.00 0.00 0.00 1016.8
20260506091856 10 300 0.0 4.8 0.00 0.00 0.00 1016.8
20260506091246 10 298 1.6 6.4 0.00 0.00 0.00 1016.8
20260506090856 10 314 0.0 3.2 0.00 0.00 0.00 1016.9
20260506090547 10 314 0.0 3.2 0.00 0.00 0.00 1016.9
20260506085846 9 307 0.0 3.2 0.00 0.00 0.00 1016.8
20260506085147 9 273 0.0 3.2 0.00 0.00 0.00 1016.8
20260506084856 10 274 0.0 6.4 0.00 0.00 0.00 1016.8
20260506084448 10 274 0.0 6.4 0.00 0.00 0.00 1016.8
20260506083857 10 287 1.6 6.4 0.00 0.00 0.00 1016.8
20260506083749 10 287 1.6 6.4 0.00 0.00 0.00 1016.8
20260506083046 10 238 0.0 3.2 0.00 0.00 0.00 1016.7
20260506082856 10 283 0.0 4.8 0.00 0.00 0.00 1016.6
20260506082346 10 273 0.0 3.2 0.00 0.00 0.00 1016.6
20260506081856 10 287 0.0 4.8 0.00 0.00 0.00 1016.5
20260506081646 10 287 0.0 4.8 0.00 0.00 0.00 1016.5
20260506080946 10 277 0.0 3.2 0.00 0.00 0.00 1016.6
20260506080856 10 277 0.0 6.4 0.00 0.00 0.00 1016.6
20260506080246 10 257 0.0 6.4 0.00 0.00 0.00 1016.4
20260506073446 10 304 0.0 4.8 0.00 0.00 0.00 1016.5
20260506072857 10 110 0.0 1.6 0.00 0.00 0.00 1016.5
20260506072746 10 110 0.0 1.6 0.00 0.00 0.00 1016.5
20260506072046 10 0 0.0 0.0 0.00 0.00 0.00 1016.6
20260506071856 10 186 0.0 3.2 0.00 0.00 0.00 1016.5
20260506071346 10 0 0.0 0.0 0.00 0.00 0.00 1016.5
20260506070856 10 0 0.0 0.0 0.00 0.00 0.00 1016.6
20260506070646 10 0 0.0 0.0 0.00 0.00 0.00 1016.6
20260506062446 11 203 0.0 3.2 0.00 0.00 0.00 1016.4
20260506061856 11 267 0.0 4.8 0.00 0.00 0.00 1016.3
20260506061748 11 267 0.0 4.8 0.00 0.00 0.00 1016.3
20260506061046 11 250 0.0 6.4 0.00 0.00 0.00 1016.3
20260506060857 11 274 3.2 12.9 0.00 0.00 0.00 1016.2
20260506060346 11 270 3.2 11.3 0.00 0.00 0.00 1016.3
20260506050858 12 276 4.8 12.9 0.00 0.00 0.00 1016.0
20260506050747 12 276 4.8 12.9 0.00 0.00 0.00 1016.0
20260506044856 13 271 1.6 9.7 0.00 0.00 0.00 1016.1
20260506044645 13 271 1.6 9.7 0.00 0.00 0.00 1016.1
20260506043945 13 243 1.6 4.8 0.00 0.00 0.00 1015.9
20260506043856 13 281 0.0 3.2 0.00 0.00 0.00 1015.8
20260506043246 13 0 0.0 0.0 0.00 0.00 0.00 1015.9
20260506042856 13 0 0.0 0.0 0.00 0.00 0.00 1015.9
20260506042545 13 0 0.0 0.0 0.00 0.00 0.00 1015.9
20260506041845 13 0 0.0 0.0 0.00 0.00 0.00 1016.0
20260506041217 13 0 0.0 0.0 0.00 0.00 0.00 1016.0
20260506041146 13 0 0.0 0.0 0.00 0.00 0.00 1016.0
20260506040856 13 0 0.0 0.0 0.00 0.00 0.00 1015.9
20260506040447 13 0 0.0 0.0 0.00 0.00 0.00 1015.9
20260506035856 14 0 0.0 0.0 0.00 0.00 0.00 1015.8
20260506035748 14 0 0.0 0.0 0.00 0.00 0.00 1015.8
20260506035046 14 0 0.0 0.0 0.00 0.00 0.00 1015.9
20260506034856 14 0 0.0 0.0 0.00 0.00 0.00 1015.8
20260506034345 15 0 0.0 0.0 0.00 0.00 0.00 1015.8
20260506033855 15 0 0.0 0.0 0.00 0.00 0.00 1015.9
20260506033645 15 0 0.0 0.0 0.00 0.00 0.00 1015.9
20260506032946 15 0 0.0 0.0 0.00 0.00 0.00 1015.7
20260506032856 15 0 0.0 0.0 0.00 0.00 0.00 1015.7
20260506032247 15 0 0.0 0.0 0.00 0.00 0.00 1015.8
20260506031855 15 0 0.0 0.0 0.00 0.00 0.00 1015.6
20260506031546 15 0 0.0 0.0 0.00 0.00 0.00 1015.6
20260506030845 15 0 0.0 0.0 0.00 0.00 0.00 1015.7
20260506030145 16 0 0.0 0.0 0.00 0.00 0.00 1015.7
20260506025855 16 0 0.0 0.0 0.00 0.00 0.00 1015.7
20260506025446 16 0 0.0 0.0 0.00 0.00 0.00 1015.7
20260506024855 16 0 0.0 0.0 0.00 0.00 0.00 1015.6
20260506024748 16 0 0.0 0.0 0.00 0.00 0.00 1015.6
20260506024045 16 0 0.0 0.0 0.00 0.00 0.00 1015.6
20260506023856 17 0 0.0 0.0 0.00 0.00 0.00 1015.6
20260506023346 17 0 0.0 0.0 0.00 0.00 0.00 1015.6
20260506022856 17 0 0.0 0.0 0.00 0.00 0.00 1015.5
20260506022645 17 0 0.0 0.0 0.00 0.00 0.00 1015.5
20260506021945 17 0 0.0 0.0 0.00 0.00 0.00 1015.6
20260506021856 17 0 0.0 0.0 0.00 0.00 0.00 1015.5
20260506021245 17 0 0.0 0.0 0.00 0.00 0.00 1015.6
20260506020856 17 0 0.0 0.0 0.00 0.00 0.00 1015.6
20260506020546 17 0 0.0 0.0 0.00 0.00 0.00 1015.6
20260506015845 17 0 0.0 0.0 0.00 0.00 0.00 1015.5